[[{"header":{"parameterUnit":"m.s-1","parameterCategory":1,"la1":30.2991,"la2":30.254,"lo1":-89.0895,"lo2":-89.0444,"dy":0.0017,"dx":0.0017,"nx":28,"ny":28,"refTime":"2025-03-13T09:00:00:Z","depth":0,"parameterNumber":2,"parameterNumberName":"U-component_of_WINDS"},"data":[0,0,0,0,0,0,0,0,0,0,0,0,0,0,0,0,0,0,0,0,0,0,0,0,0,0,0,0,0,0,0,0,0,0,0,0,0,0,0,0,0,0,0,0,0,0,0,0,0,0,0,0,0,0,0,0,0,0,-2.1576,-2.1577,0,-2.1671,-2.1672,-2.1674,-2.1706,-2.1706,-2.1706,-2.1705,-2.1803,-2.1806,-2.1809,0,0,0,0,0,0,0,0,0,0,0,0,0,-2.1422,-2.1425,-2.1576,-2.1577,-2.1578,-2.1671,-2.1673,-2.1674,-2.1706,-2.1706,-2.1706,-2.1705,-2.1802,-2.1806,-2.1809,0,0,0,0,0,0,0,0,0,0,0,0,0,-2.15,-2.1426,-2.1576,-2.1606,-2.1609,-2.1671,-2.1673,-2.1674,-2.1707,-2.1706,-2.1705,-2.1705,-2.1801,-2.1805,-2.181,-2.1848,0,0,-2.1823,-2.1825,0,0,0,0,0,0,0,0,-2.1496,-2.1506,-2.16,-2.1604,-2.1608,-2.1676,-2.1654,-2.1733,-2.1707,-2.167,-2.1705,-2.1705,-2.1761,-2.1769,-2.1788,-2.1853,-2.1857,-2.1824,-2.1826,-2.1828,-2.1829,0,0,0,0,0,0,0,-2.149,-2.1502,-2.1614,-2.1602,-2.1606,-2.1615,-2.1625,-2.1669,-2.1718,-2.1673,-2.1676,-2.1686,-2.1763,-2.1784,-2.1791,-2.1858,-2.1823,-2.1827,-2.183,-2.1832,-2.1959,-2.196,0,0,0,0,0,0,-2.148,-2.1497,-2.1611,-2.1617,-2.1549,-2.1618,-2.163,-2.1655,-2.1717,-2.1726,-2.1687,-2.1688,-2.1777,-2.1786,-2.1794,-2.1843,-2.1828,-2.1832,-2.1835,-2.1958,-2.1959,-2.196,0,0,0,0,0,0,-2.1477,-2.149,-2.1607,-2.1558,-2.1573,-2.1621,-2.1649,-2.1657,-2.1678,-2.1728,-2.1736,-2.1699,-2.1776,-2.1788,-2.1835,-2.1847,-2.1834,-2.1838,-2.1958,-2.1959,-2.196,-2.1941,0,0,0,0,0,0,-2.1472,-2.1488,-2.1503,-2.1558,-2.1576,-2.1645,-2.165,-2.1659,-2.1685,-2.1687,-2.1741,-2.175,-2.1777,-2.1828,-2.1839,-2.1853,-2.1842,-2.1957,-2.1958,-2.1959,-2.1941,-2.1941,-2.1942,0,0,0,0,0,-2.1466,-2.1495,-2.1504,-2.1518,-2.1596,-2.1646,-2.1656,-2.1687,-2.1686,-2.1702,-2.1734,-2.1748,-2.1844,-2.1832,-2.1845,-2.186,-2.1956,-2.1958,-2.1959,-2.194,-2.1941,-2.1942,0,0,0,0,0,0,-2.1441,-2.1502,-2.1513,-2.156,-2.1597,-2.1651,-2.1672,-2.1687,-2.1726,-2.1726,-2.1763,-2.1775,-2.1818,-2.1844,-2.183,-2.1901,-2.1901,-2.1905,-2.1882,-2.1883,-2.1884,-2.1876,-2.1845,0,0,0,0,0,-2.144,-2.1476,-2.1528,-2.1564,-2.1582,-2.1624,-2.1647,-2.1667,-2.1708,-2.1724,-2.1759,-2.1798,-2.1837,-2.1862,-2.19,-2.1945,-2.1957,-2.1962,-2.1963,-2.1963,-2.1966,-2.1991,-2.1994,-2.1965,-2.1965,-2.1965,0,0,-2.144,-2.1478,-2.1498,-2.156,-2.1591,-2.1627,-2.1637,-2.1675,-2.1702,-2.173,-2.1775,-2.1803,-2.1848,-2.1894,-2.1916,-2.1917,-2.1976,-2.1965,-2.1965,-2.1968,-2.1993,-2.1995,-2.1998,-2.1967,-2.1966,-2.1966,0,0,-2.1458,-2.149,-2.1523,-2.1555,-2.1602,-2.163,-2.1637,-2.1689,-2.1709,-2.1755,-2.1777,-2.181,-2.1876,-2.1907,-2.1932,-2.1962,-2.1976,-2.1973,-2.1976,-2.2,-2.2002,-2.2004,-2.2014,-2.2017,-2.1976,-2.1976,-2.1976,0,-2.1451,-2.1506,-2.1539,-2.1575,-2.1601,-2.1628,-2.1662,-2.1691,-2.1749,-2.1766,-2.1767,-2.185,-2.1883,-2.1936,-2.1943,-2.1963,-2.1973,-2.1967,-2.1999,-2.2002,-2.2004,-2.2014,-2.2017,-2.1975,-2.1976,-2.1976,-2.1976,0,-2.1495,-2.1533,-2.1554,-2.1609,-2.1638,-2.1673,-2.1711,-2.1736,-2.1754,-2.1781,-2.1828,-2.1869,-2.1915,-2.193,-2.1948,-2.1986,-2.1985,-2.1992,-2.1992,-2.2005,-2.2015,-2.2019,-2.1974,-2.1975,-2.1975,-2.1975,0,0,-2.1499,-2.1571,-2.1578,-2.1603,-2.1657,-2.1687,-2.1723,-2.1769,-2.179,-2.1829,-2.186,-2.1916,-2.1922,-2.195,-2.1973,-2.1994,-2.2014,-2.1998,-2.2,-2.1999,-2.2057,-2.205,-2.2054,-2.2024,-2.2025,-2.2026,-2.2053,0,-2.1523,-2.1588,-2.1619,-2.1671,-2.1705,-2.1732,-2.1763,-2.18,-2.1827,-2.186,-2.189,-2.1929,-2.1935,-2.1952,-2.1974,-2.2006,-2.2026,-2.2005,-2.2053,-2.2054,-2.204,-2.206,-2.2053,-2.2077,-2.2057,-2.2058,-2.2058,0,-2.1559,-2.1598,-2.1653,-2.1703,-2.1719,-2.1746,-2.179,-2.1823,-2.1865,-2.1883,-2.1914,-2.1935,-2.1974,-2.1973,-2.2027,-2.2012,-2.2034,-2.2053,-2.2054,-2.2059,-2.2056,-2.2064,-2.2085,-2.2088,-2.2065,-2.2064,-2.2064,0,-2.1555,-2.1621,-2.1662,-2.1683,-2.1742,-2.1761,-2.1787,-2.1828,-2.1854,-2.1893,-2.191,-2.1953,-2.1976,-2.2009,-2.2041,-2.2037,-2.2092,-2.2094,-2.2108,-2.2107,-2.2118,-2.2116,-2.2141,-2.2133,-2.2133,-2.2133,-2.2133,0,-2.1578,-2.1611,-2.1661,-2.1686,-2.1723,-2.1758,-2.1794,-2.1822,-2.1859,-2.189,-2.1916,-2.1945,-2.1986,-2.2021,-2.2046,-2.2087,-2.2098,-2.2113,-2.2119,-2.211,-2.2108,-2.2124,-2.2123,-2.2134,-2.2134,-2.2133,-2.2133,0,-2.1579,-2.1614,-2.1661,-2.1713,-2.1727,-2.1752,-2.1797,-2.1823,-2.1851,-2.189,-2.1901,-2.1945,-2.1987,-2.2023,-2.2078,-2.2095,-2.2137,-2.2145,-2.2122,-2.2125,-2.2138,-2.2136,-2.2173,-2.218,-2.2167,-2.2167,-2.2167,0,-2.1591,-2.1617,-2.1671,-2.1694,-2.1719,-2.1755,-2.1781,-2.1817,-2.1843,-2.1893,-2.1913,-2.1956,-2.1992,-2.2058,-2.2095,-2.2137,-2.2146,-2.2156,-2.2152,-2.2142,-2.2145,-2.2143,-2.2145,-2.2156,-2.2156,-2.2156,-2.2155,0,-2.1608,-2.1624,-2.166,-2.1703,-2.1733,-2.1768,-2.1804,-2.1821,-2.1864,-2.1892,-2.1934,-2.1963,-2.2019,-2.2061,-2.2107,-2.2134,-2.2152,-2.2157,-2.2162,-2.2153,-2.2138,-2.2145,-2.2121,-2.2155,-2.2155,-2.2155,-2.2155,-2.2155,-2.1615,-2.1638,-2.168,-2.172,-2.1751,-2.1784,-2.181,-2.1841,-2.1877,-2.1925,-2.1944,-2.1988,-2.203,-2.2093,-2.212,-2.2155,-2.2158,-2.2166,-2.2168,-2.2169,-2.2167,-2.2133,-2.2164,-2.2164,-2.2164,-2.2164,-2.2164,0,-2.1632,-2.166,-2.1696,-2.1746,-2.1777,-2.1791,-2.1831,-2.1856,-2.1894,-2.1932,-2.1967,-2.2016,-2.2057,-2.2098,-2.2141,-2.2161,-2.217,-2.2171,-2.217,-2.2176,-2.2162,-2.2153,-2.2163,-2.2163,-2.2163,-2.2163,-2.2163,-2.2163,-2.1645,-2.1685,-2.1706,-2.1762,-2.1791,-2.1833,-2.1855,-2.1886,-2.1916,-2.1969,-2.2003,-2.2029,-2.2068,-2.2115,-2.2154,-2.2165,-2.2179,-2.2178,-2.2191,-2.2177,-2.2177,-2.2176,-2.2168,-2.2181,-2.2181,-2.2201,-2.2202,-2.2202]},{"header":{"parameterUnit":"m.s-1","parameterCategory":1,"la1":30.2991,"la2":30.254,"lo1":-89.0895,"lo2":-89.0444,"dy":0.0017,"dx":0.0017,"nx":28,"ny":28,"refTime":"2025-03-13T09:00:00:Z","depth":0,"parameterNumber":3,"parameterNumberName":"V-component_of_WINDS"},"data":[0,0,0,0,0,0,0,0,0,0,0,0,0,0,0,0,0,0,0,0,0,0,0,0,0,0,0,0,0,0,0,0,0,0,0,0,0,0,0,0,0,0,0,0,0,0,0,0,0,0,0,0,0,0,0,0,0,0,2.7445,2.7446,0,2.7553,2.7554,2.7555,2.7583,2.7583,2.7582,2.7581,2.7693,2.7697,2.7701,0,0,0,0,0,0,0,0,0,0,0,0,0,2.7264,2.7267,2.7444,2.7446,2.7447,2.7553,2.7554,2.7556,2.7583,2.7583,2.7582,2.7581,2.7692,2.7697,2.7701,0,0,0,0,0,0,0,0,0,0,0,0,0,2.7354,2.7268,2.7444,2.7474,2.7477,2.7552,2.7554,2.7556,2.7584,2.7583,2.7582,2.7581,2.7691,2.7696,2.7701,2.7755,0,0,2.7718,2.772,0,0,0,0,0,0,0,0,2.7349,2.7361,2.7468,2.7472,2.7476,2.7554,2.7532,2.7623,2.7584,2.7543,2.7581,2.758,2.7648,2.7657,2.7679,2.776,2.7765,2.7719,2.7722,2.7724,2.7726,0,0,0,0,0,0,0,2.7343,2.7357,2.7487,2.747,2.7475,2.7482,2.7494,2.7549,2.76,2.7547,2.7549,2.7561,2.765,2.7674,2.7682,2.7767,2.7718,2.7723,2.7727,2.7729,2.79,2.7901,0,0,0,0,0,0,2.7331,2.7351,2.7484,2.7491,2.7409,2.7486,2.75,2.753,2.7599,2.7609,2.7562,2.7562,2.7665,2.7676,2.7686,2.7755,2.7724,2.7729,2.7732,2.7898,2.79,2.7901,0,0,0,0,0,0,2.7327,2.7343,2.748,2.7422,2.744,2.7491,2.7524,2.7532,2.7557,2.7611,2.762,2.7577,2.7665,2.7679,2.7738,2.7759,2.7732,2.7737,2.7897,2.7899,2.7901,2.7892,0,0,0,0,0,0,2.7322,2.7341,2.7362,2.7422,2.7443,2.7529,2.7526,2.7535,2.7566,2.7567,2.7628,2.7637,2.7665,2.773,2.7744,2.7766,2.7741,2.7895,2.7898,2.79,2.7891,2.7894,2.7896,0,0,0,0,0,2.7316,2.7355,2.7362,2.7378,2.7469,2.753,2.7542,2.7573,2.7567,2.7589,2.7624,2.7635,2.7755,2.7736,2.7751,2.7776,2.7894,2.7897,2.79,2.789,2.7893,2.7896,0,0,0,0,0,0,2.7296,2.7363,2.7372,2.7432,2.7475,2.7535,2.7563,2.7576,2.7622,2.7621,2.7658,2.7672,2.7729,2.7759,2.7736,2.7833,2.7824,2.7831,2.7812,2.7815,2.7818,2.781,2.7745,0,0,0,0,0,2.7298,2.7342,2.7399,2.7446,2.7467,2.7511,2.7539,2.7559,2.7606,2.7624,2.7664,2.7709,2.7757,2.7787,2.7834,2.7895,2.791,2.792,2.7922,2.7924,2.793,2.7966,2.7972,2.7911,2.7911,2.7911,0,0,2.7304,2.7347,2.7372,2.7443,2.7479,2.7524,2.7526,2.7574,2.7608,2.7631,2.7691,2.7721,2.7774,2.7835,2.7864,2.7861,2.795,2.7928,2.7929,2.7934,2.797,2.7975,2.798,2.7913,2.7912,2.7912,0,0,2.7339,2.7374,2.7418,2.7454,2.7509,2.7538,2.7548,2.7606,2.7628,2.7687,2.7706,2.7748,2.7829,2.7867,2.7896,2.7946,2.7959,2.796,2.7974,2.8009,2.8014,2.8018,2.8038,2.8044,2.7965,2.7965,2.7965,0,2.7339,2.7408,2.744,2.7487,2.7518,2.7541,2.7587,2.7621,2.7688,2.7709,2.7705,2.7809,2.7846,2.7917,2.7929,2.7952,2.7966,2.7954,2.801,2.8015,2.802,2.8039,2.8046,2.7965,2.7965,2.7965,2.7965,0,2.7407,2.7454,2.7483,2.7548,2.7582,2.7628,2.7668,2.77,2.7717,2.7747,2.7809,2.7854,2.7912,2.793,2.7947,2.8004,2.8001,2.8003,2.7996,2.8025,2.8044,2.8051,2.7965,2.7965,2.7965,2.7965,0,0,2.7432,2.7514,2.7524,2.7554,2.7616,2.7654,2.7702,2.7758,2.7785,2.783,2.7872,2.7941,2.7944,2.7978,2.8,2.803,2.8069,2.8029,2.8031,2.8036,2.8136,2.8135,2.8143,2.8077,2.8078,2.808,2.8132,0,2.7475,2.7561,2.7592,2.7663,2.7708,2.7731,2.7773,2.7816,2.7845,2.7889,2.7921,2.797,2.7969,2.799,2.8021,2.8057,2.8089,2.8054,2.8118,2.812,2.8105,2.8152,2.8151,2.8198,2.8139,2.8141,2.8141,0,2.7537,2.7584,2.7659,2.7717,2.7737,2.7774,2.7829,2.7869,2.7919,2.7939,2.7977,2.7997,2.8049,2.8038,2.8111,2.8086,2.8114,2.8136,2.8138,2.8147,2.8133,2.8163,2.8214,2.8222,2.8153,2.8152,2.8151,0,2.755,2.7632,2.7688,2.7713,2.7781,2.7807,2.7837,2.7885,2.7918,2.7965,2.7987,2.804,2.807,2.8111,2.8145,2.8134,2.8216,2.8207,2.8235,2.8234,2.8252,2.8251,2.831,2.8268,2.8268,2.8268,2.8267,0,2.7596,2.7642,2.7695,2.773,2.7782,2.7817,2.7869,2.79,2.7943,2.7985,2.8008,2.8047,2.809,2.8135,2.8162,2.822,2.8232,2.825,2.8257,2.8249,2.8247,2.8269,2.8267,2.8269,2.8269,2.8269,2.8268,0,2.762,2.7657,2.772,2.778,2.7796,2.7832,2.7884,2.7919,2.7949,2.8003,2.8017,2.8065,2.812,2.8158,2.8227,2.8246,2.8308,2.8314,2.8292,2.8295,2.8322,2.8319,2.8398,2.8411,2.8358,2.8359,2.8359,0,2.7648,2.7684,2.7747,2.7777,2.7807,2.7854,2.7887,2.7923,2.7957,2.8017,2.8046,2.8101,2.8148,2.8234,2.8276,2.833,2.8338,2.8362,2.8346,2.8338,2.8341,2.8339,2.8343,2.8365,2.8365,2.8365,2.8365,0,2.7694,2.771,2.7757,2.7811,2.7849,2.7893,2.7938,2.7961,2.8005,2.8042,2.8098,2.8134,2.8205,2.8261,2.8319,2.8351,2.8366,2.837,2.838,2.8372,2.8359,2.8368,2.83,2.8368,2.8368,2.8368,2.8368,2.8368,2.7722,2.7755,2.7806,2.7857,2.7894,2.7935,2.7972,2.8007,2.8054,2.8115,2.8133,2.8192,2.8242,2.8322,2.8354,2.8401,2.84,2.8413,2.8417,2.842,2.8421,2.835,2.8412,2.8412,2.8412,2.8412,2.8412,0,2.777,2.7804,2.7851,2.7912,2.7953,2.7963,2.8013,2.8047,2.8098,2.8143,2.8189,2.8254,2.8308,2.8354,2.8411,2.844,2.8449,2.8454,2.8453,2.846,2.8418,2.8405,2.8446,2.8446,2.8446,2.8446,2.8446,2.8446,2.78,2.7859,2.7881,2.7959,2.7992,2.8049,2.8077,2.8116,2.8152,2.8224,2.8269,2.8298,2.8345,2.8405,2.8456,2.8468,2.8489,2.8493,2.8507,2.8467,2.8463,2.8459,2.8447,2.8497,2.8497,2.8546,2.8546,2.8546]}]]